Theta_e
323 317 318 317 315 316 316 317 317 316 316 316 315 314 316 316 317 317 317 317 317 316 316 315 314 312 311 310 309 308 307 306 307 311 321 323 324 325 325 325 324 322 322
324 320 317 315 315 315 316 316 316 315 314 314 314 314 314 315 316 317 317 317 317 317 316 316 315 315 313 312 310 308 308 306 306 308 311 319 323 325 325 325 325 325 323
321 319 316 318 315 315 315 314 313 313 313 313 313 313 314 314 315 317 317 317 317 315 316 316 315 314 313 313 312 311 310 309 306 306 308 312 316 321 324 325 325 325 325
320 319 319 319 318 317 315 313 313 313 314 312 310 310 310 310 310 309 309 308 311 314 313 312 315 315 312 311 312 312 311 311 309 305 305 306 311 315 318 323 325 325 326
320 320 319 318 316 315 315 314 314 313 312 309 307 305 304 303 302 301 301 302 304 307 308 309 309 313 314 313 312 311 311 311 311 310 307 305 305 307 315 318 321 324 325
319 318 316 316 315 315 314 312 311 309 307 306 305 304 302 301 298 300 304 306 307 307 308 309 309 309 311 313 313 311 310 311 311 311 310 308 305 305 305 308 317 318 320
315 315 315 314 312 311 309 308 307 306 306 305 303 300 298 297 301 302 301 303 307 307 308 308 308 309 309 311 313 313 311 311 315 312 310 309 308 306 305 305 305 312 318
313 311 309 308 308 307 307 306 305 303 300 298 299 300 300 298 299 303 299 298 298 299 299 300 302 304 305 305 308 311 312 311 311 315 311 311 309 309 307 304 304 304 306
310 310 309 308 307 307 305 300 297 296 296 297 299 300 300 299 299 298 297 297 297 296 297 297 297 297 298 299 302 306 310 311 311 310 311 311 311 309 308 305 304 304 304
309 308 308 306 304 302 300 297 297 295 296 298 298 298 298 298 297 297 297 296 295 295 295 294 295 295 296 297 298 300 304 308 310 310 309 310 311 311 309 308 304 303 303
307 305 304 302 301 300 299 299 296 296 298 298 297 297 296 295 295 295 294 294 294 294 294 293 293 294 294 295 297 298 300 302 304 308 309 308 309 312 312 310 305 302 302
302 302 301 301 300 299 298 296 295 295 295 295 295 294 294 294 294 293 293 293 293 293 294 293 293 292 292 292 292 294 295 298 301 302 305 307 307 307 312 310 304 301 300
300 300 300 299 295 295 295 295 295 295 294 294 293 293 293 293 293 293 293 293 292 292 293 292 292 292 291 291 291 292 292 294 296 300 301 303 305 306 310 307 304 304 300
299 299 298 296 294 295 295 294 294 295 294 294 293 293 293 293 293 292 292 292 291 292 292 292 291 291 290 290 290 291 292 292 293 297 300 301 304 305 301 303 304 302 302
298 298 298 294 295 296 295 295 294 294 293 293 292 292 292 292 292 292 291 289 290 289 289 289 289 289 289 289 289 290 290 291 292 292 296 298 299 300 301 300 300 299 298
297 298 297 295 293 294 294 293 293 292 291 291 291 291 290 291 292 290 290 289 288 288 287 287 287 288 288 289 289 289 289 290 290 290 291 294 295 297 298 298 297 295 295
298 298 297 293 292 293 293 292 291 290 290 289 289 290 289 289 289 289 288 287 287 286 285 286 286 286 287 287 288 288 289 289 289 289 289 290 293 294 295 296 296 296 295
298 296 293 293 293 293 292 291 290 289 289 289 288 288 288 287 287 286 285 285 285 285 285 285 285 287 288 287 287 287 287 286 288 288 288 288 290 291 293 294 293 293 293
296 296 294 292 293 291 291 290 289 288 288 288 287 287 286 285 284 284 283 283 284 285 285 286 286 287 287 287 287 286 286 286 285 287 288 289 290 290 291 291 293 293 293
295 295 293 293 292 291 289 288 288 287 287 287 286 285 284 284 283 282 282 282 283 284 284 285 285 285 286 286 286 286 286 285 285 285 286 288 289 290 290 290 290 291 291
295 294 293 292 290 289 288 288 287 287 287 285 284 284 283 282 282 281 281 281 281 281 282 283 283 284 284 285 285 285 285 284 284 284 284 285 288 289 289 289 289 289 290
294 294 293 290 290 288 288 287 287 286 285 284 283 283 282 282 281 281 281 280 280 281 281 281 282 282 283 283 284 284 283 283 284 284 285 285 285 287 288 289 289 289 290
293 292 291 290 288 288 287 287 286 284 283 283 282 281 281 280 280 280 279 280 280 281 281 281 282 282 282 282 283 283 283 283 284 284 284 285 285 285 285 286 287 287 288
291 290 288 288 288 287 287 286 284 283 282 281 280 279 279 279 279 279 279 280 280 281 281 281 281 281 282 283 283 283 283 284 283 284 285 284 285 285 285 285 286 286 286
290 289 288 288 287 287 285 284 283 282 281 280 280 280 279 279 279 279 280 280 281 281 281 281 281 281 281 281 282 284 284 283 283 284 284 284 285 285 286 286 286 286 286
289 289 288 287 286 285 284 282 281 281 280 279 279 279 279 279 280 280 280 280 280 281 281 281 281 282 281 281 282 282 282 282 282 283 284 285 286 286 286 286 286 285 285
Wind_Speed
11 13 12 11 11 11 11 12 13 14 16 19 19 19 19 19 18 18 19 19 19 19 21 20 20 20 21 22 23 21 19 19 22 23 25 25 26 27 26 26 25 26 27
13 16 14 12 13 14 15 16 17 19 21 23 25 25 25 25 24 21 21 22 22 22 23 24 25 24 23 22 23 24 20 20 20 22 24 26 26 28 28 28 28 27 27
15 14 13 14 14 15 18 19 20 22 24 27 29 29 28 27 27 26 24 24 24 25 24 23 25 27 25 24 23 24 25 23 21 22 23 24 26 27 27 28 29 30 29
15 14 15 15 17 20 21 22 25 28 30 32 33 31 31 30 29 29 29 28 29 26 26 27 25 24 27 27 26 25 26 27 23 23 24 24 24 26 27 28 29 28 30
16 16 18 21 20 21 22 25 29 31 33 34 33 31 29 28 27 25 25 24 24 26 26 24 26 28 28 30 30 29 29 28 28 25 24 25 25 25 26 28 29 29 31
16 17 17 17 22 25 26 27 29 31 32 32 33 34 33 31 28 24 19 19 21 23 24 24 24 25 25 30 32 34 33 33 31 28 28 26 26 25 26 26 28 30 31
13 16 19 21 24 26 27 29 32 33 34 37 40 38 36 30 20 21 25 23 21 21 21 21 21 22 23 22 26 34 37 36 30 30 30 30 27 25 26 26 27 28 29
21 23 25 26 25 25 27 30 32 33 33 31 30 32 19 32 17 10 23 24 24 26 30 30 29 28 28 27 25 25 31 39 36 31 33 32 32 29 27 27 27 27 27
25 25 25 24 26 30 31 30 28 27 28 28 25 21 16 11 31 22 28 20 24 28 28 27 28 30 31 33 31 27 27 29 38 41 35 34 33 35 29 27 27 27 26
21 22 25 27 27 28 27 25 27 27 25 24 22 20 19 22 23 22 20 29 26 23 20 17 17 16 17 19 26 29 28 26 31 35 40 38 33 35 35 31 30 29 29
23 24 23 25 26 26 26 28 26 19 16 16 18 19 19 19 19 18 22 15 24 22 12 13 14 14 12 15 16 19 23 28 31 27 34 40 38 33 33 36 32 30 29
25 25 25 24 26 28 28 22 19 18 17 17 16 16 17 14 13 11 18 27 25 26 25 15 11 14 13 16 16 16 18 20 25 27 29 29 39 40 33 36 31 28 27
22 22 23 25 30 28 23 21 18 16 14 13 12 14 14 13 14 15 17 21 23 26 25 26 14 15 14 16 16 15 16 18 21 25 27 21 33 38 33 28 25 21 24
21 23 25 27 26 22 16 17 17 15 14 13 14 15 17 16 17 18 17 19 24 21 23 24 23 15 17 18 17 17 16 18 19 22 18 23 28 30 23 14 22 23 23
27 25 24 25 21 17 18 16 16 17 17 17 18 18 19 20 18 16 18 13 16 21 26 28 28 24 22 22 23 21 19 16 19 21 19 16 21 31 36 28 26 22 20
28 28 26 26 21 18 16 15 16 17 18 16 17 20 22 22 19 18 22 22 19 26 31 30 33 30 26 24 23 24 21 17 16 20 21 14 15 28 28 29 26 23 21
30 28 28 24 19 16 16 19 19 18 20 20 21 20 17 18 21 25 29 30 30 30 32 36 35 33 27 24 22 23 22 21 23 20 18 23 20 14 23 21 22 18 15
26 23 22 20 19 18 20 17 19 23 21 19 18 21 24 29 32 33 33 32 31 30 29 33 31 27 22 23 25 24 24 24 22 21 21 20 22 22 10 16 16 19 14
21 27 28 20 17 21 18 20 22 21 22 22 25 28 31 31 30 29 27 27 26 25 24 26 29 25 24 22 26 24 23 24 21 22 18 17 16 17 15 15 15 16 16
30 34 19 15 21 16 18 21 21 22 23 27 30 28 27 27 27 26 25 23 24 23 22 23 25 24 23 22 24 24 24 23 24 22 24 21 17 15 16 13 17 19 18
30 31 22 19 13 15 18 20 21 22 27 28 26 25 25 25 24 23 22 24 24 26 29 28 27 26 24 21 21 22 23 26 27 23 22 25 25 21 19 17 14 12 15
30 28 18 10 16 15 16 18 22 27 26 25 26 25 26 26 24 23 25 27 25 24 25 26 28 28 27 23 20 21 21 21 22 16 14 14 24 30 27 24 22 21 20
23 12 15 14 13 15 18 21 25 25 24 24 26 27 27 26 26 28 26 21 19 20 23 24 27 27 28 26 22 21 20 19 20 18 17 21 17 20 22 26 28 29 29
14 11 10 11 13 16 20 25 24 23 24 25 26 27 27 26 23 20 20 22 23 22 20 20 21 22 22 20 21 21 20 20 20 19 19 23 20 21 19 22 25 28 29
10 11 8 10 16 20 23 22 22 24 26 27 25 24 21 20 18 16 18 22 21 20 19 21 23 24 25 24 21 15 18 18 21 21 19 19 23 18 13 14 16 23 29
11 9 11 14 18 20 19 19 21 25 27 26 24 19 16 16 15 17 17 22 23 20 20 18 19 19 17 19 23 27 27 28 27 28 21 15 12 9 11 13 6 10 20
Wind_Direction
312 301 287 285 289 292 294 300 302 301 302 301 304 303 300 299 298 298 300 303 303 305 305 306 308 307 303 298 298 295 286 276 271 264 258 254 251 249 249 249 243 238 235
301 299 279 283 289 288 290 289 290 294 298 299 300 302 300 299 296 290 288 287 287 283 284 284 290 296 300 303 301 297 294 279 272 267 262 257 254 253 251 249 248 247 242
291 297 284 285 281 281 286 284 288 296 301 301 300 298 297 297 294 291 291 288 281 282 284 280 273 276 283 291 298 299 298 291 278 271 265 259 256 256 255 252 249 248 247
270 270 276 280 276 278 284 279 290 300 307 309 305 300 297 296 294 292 291 289 285 282 280 274 272 266 265 272 281 286 294 297 287 273 268 264 260 256 255 256 254 252 249
257 264 271 271 269 279 286 291 298 305 308 306 304 304 304 303 303 299 293 287 287 288 288 283 276 267 263 255 260 271 278 286 293 287 273 265 261 257 253 252 252 253 251
258 260 271 291 293 292 295 300 306 308 310 308 307 304 301 300 299 294 289 288 285 281 282 287 285 278 275 264 256 253 262 272 278 285 284 275 264 259 254 251 251 251 251
281 285 289 295 299 303 307 309 307 305 305 306 309 304 304 305 295 288 285 286 285 286 285 287 289 288 286 277 263 254 248 255 262 269 274 278 274 266 260 255 251 251 250
302 306 310 311 309 306 306 307 308 309 309 312 314 314 317 309 303 274 292 293 296 292 292 289 286 284 286 287 283 267 258 248 250 257 266 266 269 271 264 258 251 249 250
311 311 311 310 311 311 314 316 316 316 313 309 310 308 311 297 305 314 305 314 310 307 302 299 294 291 288 283 280 280 268 259 250 245 248 258 258 266 266 256 249 248 247
305 305 306 309 313 315 316 318 320 313 304 300 302 302 297 296 306 309 302 305 305 309 316 321 314 310 307 294 278 272 273 274 264 256 244 244 252 252 259 257 249 242 243
307 310 311 314 320 323 324 322 323 318 306 301 303 304 299 297 293 291 308 309 321 323 321 334 338 336 330 319 309 293 272 268 269 272 257 245 241 245 244 254 246 238 239
307 309 313 320 325 323 322 327 327 317 311 311 310 310 310 313 300 295 300 313 317 320 314 312 314 338 336 336 331 321 309 287 275 273 269 262 247 240 237 236 236 231 234
311 314 317 321 324 319 317 319 324 322 318 316 320 321 319 317 306 299 301 303 311 313 312 317 312 317 321 330 337 324 322 315 296 278 264 275 251 251 234 221 221 218 224
319 316 319 324 322 319 313 318 314 306 303 300 304 306 298 298 295 300 299 301 308 304 297 306 318 315 318 322 325 320 323 314 313 283 264 250 239 223 220 200 206 214 220
321 317 317 327 316 315 314 307 305 306 308 305 301 301 298 296 287 285 284 297 303 305 302 299 305 311 310 310 311 314 312 317 320 321 283 246 221 242 233 217 208 209 227
319 318 315 319 316 306 310 307 306 310 310 306 299 295 294 287 276 273 286 278 290 293 296 296 296 296 299 298 299 299 296 303 311 317 311 278 261 226 212 214 209 204 206
312 311 311 306 306 295 294 303 301 304 309 308 302 295 286 288 288 293 297 295 293 289 287 288 286 289 291 293 289 289 290 289 288 294 303 306 293 255 233 221 220 221 218
301 306 310 305 299 298 304 304 308 316 314 303 296 300 302 300 298 297 294 291 287 285 283 285 287 286 283 288 289 290 292 288 284 286 290 286 292 298 256 213 222 229 229
293 303 295 292 284 304 299 313 319 316 308 305 308 309 307 304 303 302 299 293 290 286 283 283 284 282 282 285 291 292 290 289 281 269 274 277 262 272 288 281 253 235 219
305 306 294 276 290 294 311 316 313 311 302 307 309 309 308 309 309 310 308 299 291 288 287 283 282 283 282 283 282 287 288 288 288 279 255 251 248 239 247 246 257 263 248
297 293 283 285 285 300 310 307 304 302 306 309 310 311 312 310 309 304 303 303 297 292 285 288 286 286 282 279 280 287 287 291 292 286 273 246 243 244 241 234 238 240 242
290 285 273 253 290 304 291 297 305 309 312 312 314 314 311 308 307 302 299 298 285 283 285 286 285 283 283 282 281 279 278 284 288 286 284 264 244 246 250 253 251 248 242
318 305 293 288 299 283 298 308 311 310 310 311 313 313 311 309 305 301 301 298 291 284 279 282 280 278 279 280 280 275 271 275 276 279 275 275 263 260 253 253 253 253 251
321 321 308 291 278 300 310 312 312 312 314 316 316 313 311 312 313 312 310 302 296 289 288 286 284 287 284 278 272 270 270 269 273 267 266 273 280 278 267 255 250 249 248
300 302 289 280 300 308 314 317 319 322 326 325 325 325 325 321 323 327 317 316 313 305 296 288 285 282 276 266 262 262 258 269 276 276 279 280 285 286 273 269 267 255 249
289 290 289 299 309 317 321 325 328 330 331 334 336 337 336 333 340 327 316 312 313 314 313 302 294 289 284 273 259 254 257 261 267 276 276 268 271 277 300 290 280 309 248